loading
DOY 173 | 2024-06-21T05:00:50Z

THOR ABLESTAR DEB, 545

Orbit data source: Space-Track

THOR ABLESTAR DEB, 545 is space debris in LEO originally from a launch on Thu, 29 Jun 1961 UTC launched from the Air Force Eastern Test Range (AFETR). Debris objects in space refer to the collection of defunct objects orbiting the Earth. Examples of debris include non-operational satellites, rocket bodies, and fragments generated from explosions, collisions, or faulty payload assembly.

Loading next visibility...
Loading greatness...
THOR ABLESTAR DEB details
NORAD ID545
COSPAR ID
1961-015GE
Orbit
LEO
Last TLE update2 days ago
Origin
Flag of USUSAF SSD (US)
ManufacturerUnknown
BusUnknown
MotorUnknown
MassWet unknown, Dry mass unknown
Launch date (UTC)
1961-06-29 (63 years ago)
Launch vehicleUnknown
Launch site
Air Force Eastern Test Range (AFETR)
Object type
Payload
Rocket body
Debris
Radar Cross SectionSmall (<0.1 m²)
Predictive object data (real-time)
Latitude-38.40913°
Longitude89.64674°
Altitude988.938 km
Speed7.369 km/s
Apparent Right ascension06h 53m 40s
Apparent Declination-46° 15' 56"
Sunlit
Object is in daylight
Predictive observer data (real-time)
Local Sidereal Time15:59:56
Azimuth243.976° WSW
Elevation-58.066°
Doppler factor1
Orbital elements
Apogee1,120.432 km
Perigee874.723 km
Semi-major axis7,375.714 km
Eccentricity0.0166566
Inclination67.2305°
RAAN162.6083°
Arg. of periapsis239.6344°
True anomaly120.47249°
Mean anomaly118.817°
Mean motion3.42639 °/min
BSTAR0.00052573
Period105.07 mins
Definitive object data (Epoch: 2024-06-19T09:25:17.147Z)
Latitude-0.00001°
Longitude113.18724°
Altitude1,062.094 km
Speed7.291 km/s
True Right ascension10h 50m 25s
True Declination0° 00' 00"
Sunlit
Object was in daylight at TLE epoch
TLE from 2 days ago
0 THOR ABLESTAR DEB
1 00545U 61015GE  24171.39255958  .00000440  00000-0  52573-3 0  9991
2 00545  67.2305 162.6083 0166566 239.6344 118.8170 13.70098655130549
Epoch: 2024-06-19T09:25Z
No data available

THOR ABLESTAR DEB Visibility forecast

Observer location: 39.9160978°, -105.1181434, 0m alt.

THOR ABLESTAR DEB is not visible in the next 10 days
Span
Click to sort rows by Start time (UTC) header in descending order
Start Az.
Max El. time (UTC)
Max El. Az.
Max El.
End time (UTC)
End Az.